Needles, CA

5:57 PM PDT on July 24, 2017 (GMT -0700)
Needles

Weather History for KEED - May, 2013

Change the Weather History Date:

Friday, May 24, 2013

  Actual Average Record
Temperature  
Mean Temperature 82 °F 84 °F  
Max Temperature 97 °F 98 °F 113 °F (2000)
Min Temperature 68 °F 71 °F 49 °F (1909)
Degree Days  
Heating Degree Days 0    
Cooling Degree Days 17    
Growing Degree Days 32 (Base 50)    
Moisture  
Dew Point 22 °F    
Average Humidity 11    
Maximum Humidity 18    
Minimum Humidity 6    
Precipitation  
Precipitation 0.00 in 0.00 in 0.35 in (1892)
Month to date precipitation 0.07  
Year to date precipitation 2.33  
Sea Level Pressure  
Sea Level Pressure 29.71 in    
Wind  
Wind Speed 7 mph (SSW)    
Max Wind Speed 16 mph    
Max Gust Speed 29 mph    
Visibility 10 miles    
Events      
T = Trace of Precipitation, MM = Missing Value Source: NWS Daily Summary

Daily Weather History Graph

Daily Weather History Graph

Search for Another Location

Airport or City:

Trip Planner

Search our weather history database for the weather conditions in past years. The results will help you decide how hot, cold, wet, or windy it might be!

Date:

Astronomy

May. 24, 2013 Rise Set
Actual Time 5:29 AM PDT 7:41 PM PDT
Civil Twilight 5:00 AM PDT 8:10 PM PDT
Nautical Twilight 4:25 AM PDT 8:45 PM PDT
Astronomical Twilight 3:48 AM PDT 9:23 PM PDT
Moon 7:29 PM PDT (5/24) 5:03 AM PDT (5/24)
Length of Visible Light 15h 09m
Length of Day
14h 12m
Full, 100% of the Moon is Illuminated
May 24
Full
May 24
Full
May 31
Last Quarter
Jun 8
New
Jun 16
First Quarter

Hourly Weather History & Observations

Time (PDT) Temp. Dew Point Humidity Pressure Visibility Wind Dir Wind Speed Gust Speed Precip Events Conditions
12:56 AM 78.1 °F 19.9 °F 11% 29.67 in 10.0 mi WSW 6.9 mph - N/A   Clear
1:56 AM 77.0 °F 21.0 °F 12% 29.68 in 10.0 mi West 8.1 mph - N/A   Clear
2:56 AM 75.9 °F 21.9 °F 13% 29.68 in 10.0 mi SSW 4.6 mph - N/A   Clear
3:56 AM 73.9 °F 23.0 °F 15% 29.69 in 10.0 mi SSW 4.6 mph - N/A   Clear
4:56 AM 72.0 °F 23.0 °F 16% 29.71 in 10.0 mi SW 3.5 mph - N/A   Clear
5:56 AM 68.0 °F 23.0 °F 18% 29.74 in 10.0 mi WSW 4.6 mph - N/A   Clear
6:56 AM 73.9 °F 26.1 °F 17% 29.75 in 10.0 mi Calm Calm - N/A   Clear
7:56 AM 80.1 °F 30.0 °F 16% 29.77 in 10.0 mi Calm Calm - N/A   Clear
8:56 AM 82.0 °F 28.9 °F 14% 29.78 in 10.0 mi East 5.8 mph - N/A   Clear
9:56 AM 87.1 °F 27.0 °F 11% 29.77 in 10.0 mi Calm Calm - N/A   Clear
10:56 AM 90.0 °F 26.1 °F 10% 29.76 in 10.0 mi SSW 11.5 mph 20.7 mph N/A   Clear
11:56 AM 91.0 °F 26.1 °F 10% 29.76 in 10.0 mi South 13.8 mph 21.9 mph N/A   Clear
12:56 PM 93.0 °F 25.0 °F 9% 29.75 in 10.0 mi SSW 16.1 mph 28.8 mph N/A   Clear
1:56 PM 93.9 °F 27.0 °F 9% 29.73 in 10.0 mi SSW 9.2 mph 19.6 mph N/A   Clear
2:56 PM 95.0 °F 25.0 °F 8% 29.70 in 10.0 mi SW 15.0 mph 26.5 mph N/A   Clear
3:56 PM 96.1 °F 26.1 °F 8% 29.68 in 10.0 mi South 15.0 mph 20.7 mph N/A   Clear
4:56 PM 96.1 °F 25.0 °F 8% 29.68 in 10.0 mi SW 13.8 mph 21.9 mph N/A   Clear
5:56 PM 95.0 °F 23.0 °F 8% 29.67 in 10.0 mi SSW 13.8 mph 20.7 mph N/A   Clear
6:56 PM 93.0 °F 21.0 °F 7% 29.66 in 10.0 mi SSW 13.8 mph - N/A   Clear
7:56 PM 91.0 °F 19.0 °F 7% 29.67 in 10.0 mi SSW 12.7 mph - N/A   Clear
8:56 PM 88.0 °F 16.0 °F 7% 29.68 in 10.0 mi SSW 10.4 mph - N/A   Clear
9:56 PM 86.0 °F 10.0 °F 6% 29.68 in 10.0 mi SW 8.1 mph - N/A   Clear
10:56 PM 82.0 °F 9.0 °F 6% 29.70 in 10.0 mi WSW 6.9 mph - N/A   Clear
11:56 PM 81.0 °F 12.0 °F 7% 29.70 in 10.0 mi SSW 4.6 mph - N/A   Clear